sat.trackr.live / text

‹ back to catalog

2024-205M

NORAD 61905 · 2024-205M

PAYLOAD ACTIVE UNKNOWN

§ Identity

Operator
Country
PRC
Launch date
2024-11-11
Launch site
JSC
Launch vehicle
Mass (kg)
RCS (m²)

External: N2YO · Heavens-Above · Gunter

§ Orbital elements

Epoch: 2026-09-22T22:53:54.777408Z

Period
93.58 min
Inclination
97.3396°
Eccentricity
0.0021374
Mean motion
15.38733246 rev/d
Perigee alt
435.3 km
Apogee alt
464.4 km
Semi-major
6,828.0 km
B*
3.3755e-4
RAAN
340.0325°
Arg perigee
102.2286°
Mean anomaly
258.1355°
Rev number
10,347

§ Raw data

2024-205M1 61905U 24205M   26265.95410622  .00012945  00000+0  33755-3 0  99902 61905  97.3396 340.0325 0021374 102.2286 258.1355 15.38733246103471

JSON: /api/v1/satellites/61905 · /tle

For live sub-satellite position, see the globe view (requires WebGL).

§ Visibility from observer

Set your observer location to see the next 7 days of passes ≥ 10°. The values pass through the URL so the page stays shareable.

No JS? Fill the form by hand. The geolocation button needs JavaScript.